AIC2449 VOHS-VABB

Flight info

Callsign AIC2449
Flight time 1h 14m
Altitude 38000
Route TAMIV5 APUSU W18 OPAKA EMRAK2A
Aircraft A20N/M-SDE2E3FGHIRWXY/LB1

Departure

Time 2026-04-25 09:42
Airport Rajiv Gandhi International Airport (VOHS)

Arrival

Time 2026-04-25 10:57
Airport Chhatrapati Shivaji Maharaj International Airport (VABB)
Time Latitude Longitude Altitude Speed Heading
2026-04-25 09:07 17.23420 78.43572 2028 ft 0 kts 360°
2026-04-25 09:21 17.23419 78.43572 2029 ft 0 kts
2026-04-25 09:21 17.23406 78.43572 2029 ft 2 kts 357°
2026-04-25 09:21 17.23391 78.43572 2029 ft 2 kts 359°
2026-04-25 09:22 17.23376 78.43572 2029 ft 2 kts 28°
2026-04-25 09:22 17.23365 78.43561 2029 ft 2 kts 65°
2026-04-25 09:22 17.23363 78.43545 2029 ft 1 kts 97°
2026-04-25 09:22 17.23363 78.43540 2029 ft 0 kts 93°
2026-04-25 09:25 17.23363 78.43544 2029 ft 0 kts 93°
2026-04-25 09:25 17.23363 78.43549 2029 ft 1 kts 93°
2026-04-25 09:25 17.23363 78.43552 2029 ft 1 kts 93°
2026-04-25 09:26 17.23363 78.43554 2029 ft 1 kts 93°
2026-04-25 09:26 17.23362 78.43568 2029 ft 2 kts 93°
2026-04-25 09:26 17.23361 78.43580 2029 ft 0 kts 93°
2026-04-25 09:27 17.23361 78.43584 2029 ft 1 kts 90°
2026-04-25 09:27 17.23362 78.43616 2029 ft 5 kts 86°
2026-04-25 09:27 17.23362 78.43660 2029 ft 6 kts 96°
2026-04-25 09:27 17.23329 78.43694 2029 ft 8 kts 165°
2026-04-25 09:28 17.23270 78.43695 2029 ft 7 kts 179°
2026-04-25 09:28 17.23229 78.43696 2029 ft 5 kts 179°
2026-04-25 09:28 17.23211 78.43697 2029 ft 0 kts 179°
2026-04-25 09:28 17.23210 78.43697 2029 ft 0 kts 179°
2026-04-25 09:31 17.23207 78.43697 2029 ft 0 kts 179°
2026-04-25 09:31 17.23203 78.43697 2029 ft 1 kts 179°
2026-04-25 09:31 17.23171 78.43697 2029 ft 9 kts 179°
2026-04-25 09:31 17.23094 78.43749 2029 ft 18 kts 99°
2026-04-25 09:32 17.23096 78.43918 2029 ft 27 kts 89°
2026-04-25 09:32 17.23098 78.44116 2029 ft 23 kts 89°
2026-04-25 09:32 17.23093 78.44267 2029 ft 19 kts 118°
2026-04-25 09:32 17.23022 78.44302 2029 ft 0 kts 179°
2026-04-25 09:40 17.23011 78.44302 2029 ft 5 kts 179°
2026-04-25 09:40 17.22936 78.44305 2029 ft 14 kts 178°
2026-04-25 09:40 17.22902 78.44265 2029 ft 0 kts 265°
2026-04-25 09:41 17.22901 78.44247 2029 ft 17 kts 265°
2026-04-25 09:42 17.22891 78.43867 2029 ft 84 kts 270°
2026-04-25 09:42 17.22881 78.43051 2029 ft 138 kts 269°
2026-04-25 09:42 17.22862 78.41908 2212 ft 164 kts 269°
2026-04-25 09:42 17.22839 78.40723 2678 ft 164 kts 269°
2026-04-25 09:43 17.22823 78.39526 3015 ft 166 kts 269°
2026-04-25 09:43 17.22808 78.38274 3227 ft 177 kts 269°
2026-04-25 09:43 17.22792 78.36958 3454 ft 188 kts 269°
2026-04-25 09:43 17.22772 78.35572 3660 ft 201 kts 270°
2026-04-25 09:44 17.22754 78.34071 3939 ft 213 kts 270°
2026-04-25 09:44 17.22850 78.32471 4179 ft 229 kts 279°
2026-04-25 09:44 17.23233 78.30754 4413 ft 248 kts 287°
2026-04-25 09:44 17.23751 78.28966 4724 ft 264 kts 288°
2026-04-25 09:45 17.24318 78.27069 5056 ft 280 kts 288°
2026-04-25 09:45 17.24905 78.25098 5624 ft 287 kts 288°
2026-04-25 09:45 17.25495 78.23099 6319 ft 289 kts 288°
2026-04-25 09:45 17.26080 78.21108 7204 ft 284 kts 288°
2026-04-25 09:46 17.26639 78.19193 8237 ft 273 kts 288°
2026-04-25 09:46 17.27177 78.17344 9131 ft 267 kts 288°
2026-04-25 09:46 17.27721 78.15479 9824 ft 269 kts 288°
2026-04-25 09:46 17.28261 78.13623 10466 ft 272 kts 288°
2026-04-25 09:47 17.28816 78.11714 11124 ft 275 kts 288°
2026-04-25 09:47 17.29371 78.09808 11773 ft 277 kts 288°
2026-04-25 09:47 17.29935 78.07867 12422 ft 280 kts 288°
2026-04-25 09:47 17.30501 78.05926 13099 ft 281 kts 288°
2026-04-25 09:48 17.31070 78.03966 13793 ft 282 kts 288°
2026-04-25 09:48 17.31650 78.01968 14305 ft 291 kts 287°
2026-04-25 09:48 17.32240 77.99933 14592 ft 307 kts 287°
2026-04-25 09:48 17.32883 77.97717 14884 ft 322 kts 287°
2026-04-25 09:49 17.33548 77.95419 15164 ft 338 kts 287°
2026-04-25 09:49 17.34244 77.93014 15434 ft 353 kts 287°
2026-04-25 09:49 17.34967 77.90518 15689 ft 367 kts 287°
2026-04-25 09:49 17.35721 77.87910 16074 ft 376 kts 287°
2026-04-25 09:50 17.36475 77.85306 16677 ft 378 kts 287°
2026-04-25 09:50 17.37236 77.82675 17326 ft 379 kts 287°
2026-04-25 09:50 17.38000 77.80029 17942 ft 380 kts 286°
2026-04-25 09:50 17.38762 77.77390 18538 ft 382 kts 286°
2026-04-25 09:51 17.39542 77.74692 19113 ft 385 kts 286°
2026-04-25 09:51 17.40316 77.72008 19578 ft 390 kts 285°
2026-04-25 09:51 17.41111 77.69249 20009 ft 396 kts 285°
2026-04-25 09:51 17.41902 77.66498 20521 ft 399 kts 285°
2026-04-25 09:52 17.42711 77.63686 21051 ft 402 kts 284°
2026-04-25 09:52 17.43436 77.60888 21569 ft 404 kts 281°
2026-04-25 09:52 17.44018 77.57995 22096 ft 406 kts 277°
2026-04-25 09:52 17.44447 77.55072 22613 ft 407 kts 275°
2026-04-25 09:53 17.44830 77.52100 23133 ft 410 kts 275°
2026-04-25 09:53 17.45206 77.49136 23634 ft 412 kts 274°
2026-04-25 09:53 17.45577 77.46191 24120 ft 415 kts 274°
2026-04-25 09:53 17.45956 77.43195 24607 ft 417 kts 274°
2026-04-25 09:54 17.46342 77.40146 25119 ft 419 kts 274°
2026-04-25 09:54 17.46727 77.37109 25627 ft 420 kts 274°
2026-04-25 09:54 17.47111 77.34087 26126 ft 421 kts 274°
2026-04-25 09:54 17.47500 77.31024 26641 ft 422 kts 274°
2026-04-25 09:55 17.47885 77.27994 27141 ft 422 kts 274°
2026-04-25 09:55 17.48272 77.24934 27604 ft 424 kts 274°
2026-04-25 09:55 17.48658 77.21892 28044 ft 425 kts 273°
2026-04-25 09:55 17.49053 77.18774 28494 ft 426 kts 273°
2026-04-25 09:56 17.49440 77.15710 28914 ft 427 kts 273°
2026-04-25 09:56 17.49832 77.12598 29314 ft 428 kts 273°
2026-04-25 09:56 17.50224 77.09486 29735 ft 427 kts 273°
2026-04-25 09:56 17.50613 77.06411 30271 ft 424 kts 273°
2026-04-25 09:57 17.50996 77.03381 30801 ft 421 kts 272°
2026-04-25 09:57 17.51380 77.00345 31270 ft 419 kts 272°
2026-04-25 09:57 17.51762 76.97305 31714 ft 418 kts 272°
2026-04-25 09:57 17.52135 76.94330 32348 ft 411 kts 271°
2026-04-25 09:58 17.52504 76.91425 33315 ft 395 kts 271°
2026-04-25 09:58 17.52861 76.88616 34174 ft 382 kts 270°
2026-04-25 09:58 17.53200 76.85870 34702 ft 377 kts 270°
2026-04-25 09:58 17.53530 76.83167 35067 ft 376 kts 270°
2026-04-25 09:59 17.53863 76.80445 35386 ft 376 kts 270°
2026-04-25 09:59 17.54214 76.77729 35706 ft 377 kts 273°
2026-04-25 09:59 17.54811 76.75039 35879 ft 384 kts 279°
2026-04-25 09:59 17.55754 76.72378 35883 ft 397 kts 287°
2026-04-25 10:00 17.57056 76.69797 35885 ft 412 kts 294°
2026-04-25 10:00 17.58760 76.67309 35886 ft 427 kts 302°
2026-04-25 10:00 17.60849 76.65024 35886 ft 442 kts 310°
2026-04-25 10:00 17.63331 76.63006 35886 ft 457 kts 319°
2026-04-25 10:01 17.66093 76.61329 35890 ft 468 kts 324°
2026-04-25 10:01 17.69039 76.59724 35889 ft 474 kts 325°
2026-04-25 10:01 17.74936 76.56584 35885 ft 475 kts 325°
2026-04-25 10:02 17.80840 76.53401 35884 ft 475 kts 325°
2026-04-25 10:02 17.86712 76.50208 35884 ft 476 kts 325°
2026-04-25 10:03 17.92631 76.46978 35884 ft 476 kts 325°
2026-04-25 10:03 17.98515 76.43765 35884 ft 476 kts 325°
2026-04-25 10:04 18.04373 76.40623 35884 ft 476 kts 326°
2026-04-25 10:04 18.10319 76.37479 35881 ft 472 kts 322°
2026-04-25 10:05 18.12987 76.35613 35879 ft 461 kts 313°
2026-04-25 10:05 18.15323 76.33324 35885 ft 453 kts 303°
2026-04-25 10:05 18.18827 76.27966 35887 ft 441 kts 291°
2026-04-25 10:06 18.21762 76.22266 35885 ft 441 kts 290°
2026-04-25 10:06 18.24697 76.16560 35884 ft 442 kts 290°
2026-04-25 10:07 18.27643 76.10874 35884 ft 442 kts 290°
2026-04-25 10:07 18.30604 76.05174 35884 ft 442 kts 291°
2026-04-25 10:08 18.33554 75.99496 35884 ft 441 kts 290°
2026-04-25 10:08 18.36516 75.93797 35884 ft 442 kts 291°
2026-04-25 10:09 18.39470 75.88111 35884 ft 441 kts 291°
2026-04-25 10:09 18.42422 75.82421 35884 ft 441 kts 291°
2026-04-25 10:10 18.45362 75.76751 35884 ft 441 kts 291°
2026-04-25 10:10 18.48298 75.71081 35884 ft 441 kts 291°
2026-04-25 10:11 18.51244 75.65385 35884 ft 441 kts 291°
2026-04-25 10:11 18.54178 75.59708 35884 ft 441 kts 291°
2026-04-25 10:12 18.57107 75.54032 35884 ft 441 kts 291°
2026-04-25 10:13 18.61527 75.45468 35884 ft 441 kts 291°
2026-04-25 10:13 18.64448 75.39796 35884 ft 441 kts 291°
2026-04-25 10:14 18.67373 75.34113 35886 ft 441 kts 290°
2026-04-25 10:14 18.70277 75.28465 35884 ft 440 kts 290°
2026-04-25 10:15 18.73193 75.22791 35884 ft 440 kts 290°
2026-04-25 10:15 18.76109 75.17107 35884 ft 441 kts 290°
2026-04-25 10:16 18.79040 75.11392 35884 ft 441 kts 290°
2026-04-25 10:16 18.81973 75.05668 35884 ft 440 kts 290°
2026-04-25 10:17 18.84898 74.99952 35888 ft 440 kts 290°
2026-04-25 10:17 18.87816 74.94244 35893 ft 440 kts 290°
2026-04-25 10:18 18.90746 74.88506 35899 ft 440 kts 290°
2026-04-25 10:18 18.93661 74.82795 35904 ft 440 kts 290°
2026-04-25 10:19 18.96547 74.77146 35562 ft 430 kts 290°
2026-04-25 10:19 18.97962 74.74372 34835 ft 431 kts 290°
2026-04-25 10:19 18.99387 74.71572 33929 ft 435 kts 290°
2026-04-25 10:19 19.00823 74.68739 33004 ft 439 kts 290°
2026-04-25 10:20 19.02266 74.65885 32042 ft 443 kts 291°
2026-04-25 10:20 19.03708 74.63034 31046 ft 447 kts 291°
2026-04-25 10:20 19.05194 74.60098 29975 ft 452 kts 292°
2026-04-25 10:20 19.06679 74.57168 28889 ft 457 kts 293°
2026-04-25 10:21 19.08169 74.54232 28167 ft 453 kts 294°
2026-04-25 10:21 19.09672 74.51283 27514 ft 449 kts 294°
2026-04-25 10:21 19.11154 74.48372 26873 ft 445 kts 295°
2026-04-25 10:21 19.12613 74.45503 26252 ft 441 kts 295°
2026-04-25 10:22 19.14057 74.42657 25642 ft 438 kts 296°
2026-04-25 10:22 19.15491 74.39829 25110 ft 432 kts 296°
2026-04-25 10:22 19.16916 74.37020 24898 ft 430 kts 296°
2026-04-25 10:22 19.18333 74.34225 24895 ft 432 kts 296°
2026-04-25 10:23 19.19754 74.31422 24892 ft 433 kts 296°
2026-04-25 10:23 19.21192 74.28583 24890 ft 433 kts 296°
2026-04-25 10:23 19.22389 74.26218 24888 ft 433 kts 296°
2026-04-25 10:23 19.23823 74.23382 24886 ft 433 kts 296°
2026-04-25 10:24 19.25241 74.20573 24885 ft 433 kts 296°
2026-04-25 10:24 19.26679 74.17725 24884 ft 433 kts 296°
2026-04-25 10:24 19.28101 74.14909 24814 ft 430 kts 296°
2026-04-25 10:24 19.29491 74.12149 24361 ft 426 kts 297°
2026-04-25 10:25 19.30880 74.09385 23667 ft 426 kts 297°
2026-04-25 10:25 19.32278 74.06609 23009 ft 424 kts 297°
2026-04-25 10:25 19.33637 74.03912 22422 ft 414 kts 297°
2026-04-25 10:25 19.34979 74.01251 21420 ft 409 kts 297°
2026-04-25 10:26 19.36308 73.98608 20360 ft 403 kts 297°
2026-04-25 10:26 19.37606 73.96026 19822 ft 386 kts 298°
2026-04-25 10:26 19.38823 73.93604 19430 ft 367 kts 298°
2026-04-25 10:26 19.39991 73.91281 19096 ft 349 kts 298°
2026-04-25 10:27 19.41094 73.89037 18749 ft 333 kts 297°
2026-04-25 10:27 19.42170 73.86923 18182 ft 327 kts 299°
2026-04-25 10:27 19.43284 73.84844 17500 ft 325 kts 300°
2026-04-25 10:27 19.44395 73.82787 16842 ft 321 kts 300°
2026-04-25 10:28 19.45505 73.80737 16193 ft 318 kts 300°
2026-04-25 10:28 19.46590 73.78728 15558 ft 314 kts 300°
2026-04-25 10:28 19.47665 73.76736 15010 ft 308 kts 300°
2026-04-25 10:28 19.48661 73.74750 14771 ft 309 kts 290°
2026-04-25 10:29 19.49072 73.72510 14769 ft 310 kts 274°
2026-04-25 10:29 19.49154 73.70219 14773 ft 310 kts 271°
2026-04-25 10:29 19.49172 73.67996 14773 ft 310 kts 270°
2026-04-25 10:29 19.49179 73.65692 14753 ft 308 kts 270°
2026-04-25 10:30 19.49182 73.63471 14361 ft 299 kts 270°
2026-04-25 10:30 19.49184 73.61270 13614 ft 305 kts 270°
2026-04-25 10:30 19.49182 73.59013 13091 ft 302 kts 270°
2026-04-25 10:30 19.49179 73.56817 12603 ft 299 kts 270°
2026-04-25 10:31 19.49174 73.54624 12028 ft 296 kts 270°
2026-04-25 10:31 19.49149 73.52448 11514 ft 297 kts 265°
2026-04-25 10:31 19.48593 73.50380 11145 ft 293 kts 240°
2026-04-25 10:31 19.47321 73.48731 10801 ft 290 kts 224°
2026-04-25 10:32 19.45835 73.47313 10399 ft 289 kts 221°
2026-04-25 10:32 19.44303 73.45927 9992 ft 289 kts 220°
2026-04-25 10:32 19.42779 73.44563 9632 ft 287 kts 220°
2026-04-25 10:32 19.41263 73.43208 9388 ft 280 kts 220°
2026-04-25 10:33 19.39800 73.41901 9217 ft 271 kts 220°
2026-04-25 10:33 19.38388 73.40640 9026 ft 264 kts 220°
2026-04-25 10:33 19.36980 73.39385 8721 ft 262 kts 220°
2026-04-25 10:33 19.35600 73.38152 8388 ft 261 kts 222°
2026-04-25 10:34 19.34492 73.36652 8020 ft 260 kts 248°
2026-04-25 10:34 19.33954 73.34816 7792 ft 255 kts 258°
2026-04-25 10:34 19.33589 73.32981 7779 ft 257 kts 259°
2026-04-25 10:34 19.33246 73.31100 7776 ft 258 kts 260°
2026-04-25 10:35 19.32910 73.29228 7775 ft 258 kts 260°
2026-04-25 10:35 19.32578 73.27368 7774 ft 258 kts 260°
2026-04-25 10:35 19.32244 73.25497 7774 ft 258 kts 260°
2026-04-25 10:35 19.31905 73.23595 7774 ft 258 kts 260°
2026-04-25 10:36 19.31573 73.21735 7773 ft 258 kts 260°
2026-04-25 10:36 19.31251 73.19855 7772 ft 258 kts 264°
2026-04-25 10:36 19.31116 73.17918 7774 ft 258 kts 269°
2026-04-25 10:36 19.31064 73.16007 7774 ft 258 kts 270°
2026-04-25 10:37 19.31027 73.14105 7774 ft 258 kts 270°
2026-04-25 10:37 19.30992 73.12209 7774 ft 258 kts 270°
2026-04-25 10:37 19.30958 73.10279 7774 ft 258 kts 270°
2026-04-25 10:37 19.30924 73.08368 7774 ft 258 kts 270°
2026-04-25 10:38 19.30891 73.06469 7774 ft 258 kts 270°
2026-04-25 10:38 19.30857 73.04583 7774 ft 258 kts 270°
2026-04-25 10:38 19.30823 73.02687 7704 ft 254 kts 270°
2026-04-25 10:38 19.30546 73.00850 7332 ft 257 kts 247°
2026-04-25 10:39 19.29484 72.99342 6938 ft 258 kts 217°
2026-04-25 10:39 19.27850 72.98575 6587 ft 256 kts 186°
2026-04-25 10:39 19.26116 72.98753 6241 ft 252 kts 156°
2026-04-25 10:39 19.24746 72.99757 5902 ft 248 kts 127°
2026-04-25 10:40 19.23967 73.01370 5568 ft 244 kts 105°
2026-04-25 10:40 19.23546 73.03105 5251 ft 242 kts 101°
2026-04-25 10:40 19.23193 73.04852 4928 ft 241 kts 100°
2026-04-25 10:40 19.22847 73.06599 4612 ft 240 kts 102°
2026-04-25 10:41 19.22125 73.08186 4260 ft 244 kts 129°
2026-04-25 10:41 19.20907 73.09433 4026 ft 241 kts 138°
2026-04-25 10:41 19.19618 73.10551 4000 ft 243 kts 140°
2026-04-25 10:41 19.18290 73.11667 3997 ft 244 kts 140°
2026-04-25 10:42 19.16951 73.12786 3996 ft 244 kts 140°
2026-04-25 10:42 19.15540 73.13769 3979 ft 246 kts 159°
2026-04-25 10:42 19.13867 73.13979 3957 ft 244 kts 189°
2026-04-25 10:42 19.12354 73.13284 3797 ft 236 kts 222°
2026-04-25 10:43 19.11299 73.11982 3643 ft 226 kts 237°
2026-04-25 10:43 19.10464 73.10620 3490 ft 219 kts 239°
2026-04-25 10:43 19.09715 73.09226 3323 ft 211 kts 248°
2026-04-25 10:43 19.09286 73.07774 3120 ft 205 kts 262°
2026-04-25 10:44 19.09130 73.06296 3041 ft 198 kts 270°
2026-04-25 10:44 19.09104 73.04826 3086 ft 198 kts 272°
2026-04-25 10:44 19.09102 73.03360 2994 ft 199 kts 272°
2026-04-25 10:44 19.09094 73.01894 2697 ft 197 kts 271°
2026-04-25 10:45 19.09074 73.00436 2410 ft 195 kts 271°
2026-04-25 10:45 19.09051 72.99027 2133 ft 188 kts 271°
2026-04-25 10:45 19.09027 72.97678 1898 ft 175 kts 271°
2026-04-25 10:45 19.09006 72.96424 1650 ft 165 kts 271°
2026-04-25 10:46 19.08988 72.95242 1425 ft 153 kts 272°
2026-04-25 10:46 19.08973 72.94153 1226 ft 141 kts 271°
2026-04-25 10:46 19.08959 72.93134 1056 ft 138 kts 271°
2026-04-25 10:46 19.08945 72.92080 673 ft 154 kts 271°
2026-04-25 10:47 19.08930 72.91024 1529 ft 142 kts 271°
2026-04-25 10:47 19.08911 72.89996 2163 ft 146 kts 272°
2026-04-25 10:47 19.08877 72.88894 2488 ft 159 kts 269°
2026-04-25 10:47 19.08799 72.87676 2795 ft 174 kts 269°
2026-04-25 10:48 19.08600 72.86345 3143 ft 194 kts 249°
2026-04-25 10:48 19.07921 72.85030 3530 ft 210 kts 246°
2026-04-25 10:48 19.07661 72.83472 3860 ft 220 kts 279°
2026-04-25 10:48 19.08233 72.82044 3987 ft 207 kts 314°
2026-04-25 10:49 19.09452 72.81250 3920 ft 212 kts 351°
2026-04-25 10:49 19.10928 72.81375 3964 ft 217 kts 24°
2026-04-25 10:49 19.12093 72.82374 3982 ft 220 kts 56°
2026-04-25 10:49 19.12774 72.83847 3997 ft 221 kts 68°
2026-04-25 10:50 19.13293 72.85371 3996 ft 221 kts 70°
2026-04-25 10:50 19.13789 72.86932 3996 ft 221 kts 70°
2026-04-25 10:50 19.14287 72.88489 4001 ft 221 kts 71°
2026-04-25 10:50 19.14804 72.90022 4044 ft 220 kts 70°
2026-04-25 10:51 19.15308 72.91563 4096 ft 215 kts 70°
2026-04-25 10:51 19.15651 72.93121 4112 ft 221 kts 84°
2026-04-25 10:51 19.15693 72.94734 4093 ft 222 kts 89°
2026-04-25 10:51 19.15657 72.96379 4062 ft 222 kts 90°
2026-04-25 10:52 19.15606 72.97988 3856 ft 212 kts 90°
2026-04-25 10:52 19.15552 72.99516 3576 ft 203 kts 90°
2026-04-25 10:52 19.15397 73.00980 3158 ft 203 kts 109°
2026-04-25 10:52 19.14537 73.02183 2775 ft 211 kts 147°
2026-04-25 10:53 19.13160 73.02606 2604 ft 208 kts 185°
2026-04-25 10:53 19.11816 73.02070 2608 ft 209 kts 222°
2026-04-25 10:53 19.10896 73.00939 2696 ft 194 kts 237°
2026-04-25 10:53 19.10186 72.99792 2591 ft 176 kts 239°
2026-04-25 10:54 19.09536 72.98705 2256 ft 174 kts 241°
2026-04-25 10:54 19.09198 72.97944 2003 ft 171 kts 256°
2026-04-25 10:54 19.08988 72.96350 1661 ft 157 kts 270°
2026-04-25 10:54 19.08972 72.95271 1441 ft 147 kts 273°
2026-04-25 10:55 19.08942 72.94167 1285 ft 151 kts 270°
2026-04-25 10:55 19.08901 72.93100 1167 ft 142 kts 272°
2026-04-25 10:55 19.08917 72.91971 765 ft 177 kts 274°
2026-04-25 10:55 19.08937 72.90733 709 ft 160 kts 272°
2026-04-25 10:56 19.08906 72.89578 435 ft 155 kts 271°
2026-04-25 10:56 19.08892 72.88461 220 ft 146 kts 272°
2026-04-25 10:56 19.08877 72.87408 57 ft 138 kts 271°
2026-04-25 10:56 19.08869 72.86469 35 ft 109 kts 271°
2026-04-25 10:57 19.08863 72.85855 29 ft 53 kts 267°
2026-04-25 10:57 19.08922 72.85556 27 ft 24 kts 294°
2026-04-25 10:57 19.09014 72.85518 29 ft 17 kts 66°
2026-04-25 10:57 19.09026 72.85639 29 ft 16 kts 87°
2026-04-25 10:58 19.09031 72.85760 29 ft 16 kts 91°
2026-04-25 10:58 19.09030 72.85879 30 ft 15 kts 90°
2026-04-25 10:58 19.09030 72.85989 32 ft 14 kts 89°
2026-04-25 10:58 19.09032 72.86089 32 ft 13 kts 89°
2026-04-25 10:59 19.09033 72.86185 32 ft 12 kts 89°
2026-04-25 10:59 19.09034 72.86276 32 ft 11 kts 90°
2026-04-25 10:59 19.09035 72.86360 32 ft 11 kts 89°
2026-04-25 10:59 19.09038 72.86446 32 ft 13 kts 89°
2026-04-25 11:00 19.09037 72.86585 32 ft 26 kts 91°
2026-04-25 11:00 19.09042 72.86769 32 ft 23 kts 89°
2026-04-25 11:00 19.09044 72.86942 29 ft 22 kts 89°
2026-04-25 11:00 19.09046 72.87105 29 ft 21 kts 89°
2026-04-25 11:01 19.09048 72.87254 29 ft 19 kts 89°
2026-04-25 11:01 19.09050 72.87392 29 ft 18 kts 86°
2026-04-25 11:01 19.09126 72.87473 31 ft 15 kts 44°
2026-04-25 11:01 19.09143 72.87573 32 ft 13 kts 89°
2026-04-25 11:02 19.09160 72.87665 32 ft 12 kts 38°
2026-04-25 11:02 19.09238 72.87676 33 ft 10 kts
2026-04-25 11:02 19.09305 72.87710 35 ft 11 kts 32°
2026-04-25 11:02 19.09382 72.87750 35 ft 13 kts 21°
2026-04-25 11:03 19.09438 72.87782 36 ft 6 kts 31°
2026-04-25 11:03 19.09472 72.87804 37 ft 4 kts 32°
2026-04-25 11:03 19.09492 72.87817 38 ft 3 kts 30°
2026-04-25 11:03 19.09512 72.87814 38 ft 3 kts 326°
2026-04-25 11:04 19.09529 72.87774 39 ft 6 kts 283°
2026-04-25 11:04 19.09536 72.87738 39 ft 0 kts 282°
2026-04-25 11:04 19.09537 72.87736 39 ft 0 kts 282°